Time,TemperatureF,DewpointF,PressureIn,WindDirection,WindDirectionDegrees,WindSpeedMPH,WindSpeedGustMPH,Humidity,HourlyPrecipIn,Conditions,Clouds,dailyrainin,SoftwareType,DateUTC
2013-01-11 00:08:00,30.3,25.0,30.56,NW,312,3.0,4.0,79,0.00,,,0.00,weatherlink.com 1.10,2013-01-11 05:08:00,
2013-01-11 00:23:00,30.1,25.0,30.56,West,279,0.0,2.0,81,0.00,,,0.00,weatherlink.com 1.10,2013-01-11 05:23:00,
2013-01-11 00:38:00,29.9,25.0,30.55,West,263,0.0,2.0,81,0.00,,,0.00,weatherlink.com 1.10,2013-01-11 05:38:00,
2013-01-11 00:53:00,29.8,25.0,30.56,NW,304,0.0,0.0,81,0.00,,,0.00,weatherlink.com 1.10,2013-01-11 05:53:00,
2013-01-11 01:08:00,28.8,24.0,30.55,NW,304,0.0,0.0,82,0.00,,,0.00,weatherlink.com 1.10,2013-01-11 06:08:00,
2013-01-11 01:23:00,27.7,23.0,30.55,NW,314,0.0,1.0,83,0.00,,,0.00,weatherlink.com 1.10,2013-01-11 06:23:00,
2013-01-11 01:38:00,27.2,23.0,30.54,NW,309,1.0,1.0,85,0.00,,,0.00,weatherlink.com 1.10,2013-01-11 06:38:00,
2013-01-11 01:54:00,26.6,23.0,30.54,NW,311,0.0,1.0,87,0.00,,,0.00,weatherlink.com 1.10,2013-01-11 06:54:00,
2013-01-11 02:09:00,26.4,23.0,30.54,NNW,327,1.0,2.0,87,0.00,,,0.00,weatherlink.com 1.10,2013-01-11 07:09:00,
2013-01-11 02:24:00,26.5,23.0,30.53,NNW,327,0.0,1.0,86,0.00,,,0.00,weatherlink.com 1.10,2013-01-11 07:24:00,
2013-01-11 02:39:00,25.9,23.0,30.52,NNW,328,1.0,1.0,88,0.00,,,0.00,weatherlink.com 1.10,2013-01-11 07:39:00,
2013-01-11 02:54:00,26.0,23.0,30.52,NNW,328,0.0,1.0,88,0.00,,,0.00,weatherlink.com 1.10,2013-01-11 07:54:00,
2013-01-11 03:09:00,25.8,23.0,30.51,NNW,328,0.0,1.0,88,0.00,,,0.00,weatherlink.com 1.10,2013-01-11 08:09:00,
2013-01-11 03:24:00,25.6,23.0,30.51,NNW,328,0.0,0.0,89,0.00,,,0.00,weatherlink.com 1.10,2013-01-11 08:24:00,
2013-01-11 03:39:00,25.6,23.0,30.50,NNW,327,1.0,1.0,89,0.00,,,0.00,weatherlink.com 1.10,2013-01-11 08:39:00,
2013-01-11 03:54:00,26.2,24.0,30.50,South,184,0.0,1.0,90,0.00,,,0.00,weatherlink.com 1.10,2013-01-11 08:54:00,
2013-01-11 04:09:00,25.2,22.0,30.50,South,184,0.0,0.0,89,0.00,,,0.00,weatherlink.com 1.10,2013-01-11 09:09:00,
2013-01-11 04:24:00,24.6,22.0,30.48,South,185,0.0,0.0,90,0.00,,,0.00,weatherlink.com 1.10,2013-01-11 09:24:00,
2013-01-11 04:39:00,24.6,22.0,30.48,South,185,0.0,0.0,91,0.00,,,0.00,weatherlink.com 1.10,2013-01-11 09:39:00,
2013-01-11 04:54:00,24.9,23.0,30.48,SE,129,0.0,0.0,91,0.00,,,0.00,weatherlink.com 1.10,2013-01-11 09:54:00,
2013-01-11 05:09:00,24.8,23.0,30.48,North,4,0.0,0.0,91,0.00,,,0.00,weatherlink.com 1.10,2013-01-11 10:09:00,
2013-01-11 05:24:00,24.2,22.0,30.47,NNW,332,0.0,0.0,91,0.00,,,0.00,weatherlink.com 1.10,2013-01-11 10:24:00,
2013-01-11 05:39:00,24.2,22.0,30.48,NNW,333,0.0,0.0,92,0.00,,,0.00,weatherlink.com 1.10,2013-01-11 10:39:00,
2013-01-11 05:54:00,24.6,23.0,30.47,NE,45,0.0,1.0,92,0.00,,,0.00,weatherlink.com 1.10,2013-01-11 10:54:00,
2013-01-11 06:09:00,23.9,22.0,30.47,NE,45,0.0,0.0,92,0.00,,,0.00,weatherlink.com 1.10,2013-01-11 11:09:00,
2013-01-11 06:24:00,23.8,22.0,30.46,NE,46,0.0,1.0,92,0.00,,,0.00,weatherlink.com 1.10,2013-01-11 11:24:00,
2013-01-11 06:39:00,23.8,22.0,30.48,NE,46,0.0,0.0,92,0.00,,,0.00,weatherlink.com 1.10,2013-01-11 11:39:00,
2013-01-11 06:54:00,24.0,22.0,30.48,NE,46,0.0,0.0,92,0.00,,,0.00,weatherlink.com 1.10,2013-01-11 11:54:00,
2013-01-11 07:09:00,24.1,22.0,30.47,NE,46,0.0,0.0,92,0.00,,,0.00,weatherlink.com 1.10,2013-01-11 12:09:00,
2013-01-11 07:24:00,24.8,23.0,30.47,NE,46,0.0,0.0,92,0.00,,,0.00,weatherlink.com 1.10,2013-01-11 12:24:00,
2013-01-11 07:39:00,24.7,23.0,30.47,NE,46,0.0,0.0,91,0.00,,,0.00,weatherlink.com 1.10,2013-01-11 12:39:00,
2013-01-11 07:54:00,25.0,23.0,30.46,NE,46,0.0,0.0,92,0.00,,,0.00,weatherlink.com 1.10,2013-01-11 12:54:00,
2013-01-11 08:09:00,25.5,23.0,30.47,NE,46,0.0,0.0,91,0.00,,,0.00,weatherlink.com 1.10,2013-01-11 13:09:00,
2013-01-11 08:24:00,25.9,24.0,30.46,NE,46,0.0,0.0,91,0.00,,,0.00,weatherlink.com 1.10,2013-01-11 13:24:00,
2013-01-11 08:39:00,26.6,24.0,30.45,North,357,0.0,0.0,90,0.00,,,0.00,weatherlink.com 1.10,2013-01-11 13:39:00,
2013-01-11 08:54:00,27.1,24.0,30.45,NE,36,0.0,1.0,89,0.00,,,0.00,weatherlink.com 1.10,2013-01-11 13:54:00,
2013-01-11 09:09:00,27.5,25.0,30.43,NE,36,0.0,1.0,89,0.00,,,0.00,weatherlink.com 1.10,2013-01-11 14:09:00,
2013-01-11 09:24:00,27.7,25.0,30.41,NE,43,1.0,1.0,88,0.00,,,0.00,weatherlink.com 1.10,2013-01-11 14:24:00,
2013-01-11 09:39:00,29.3,26.0,30.41,East,99,1.0,5.0,86,0.00,,,0.00,weatherlink.com 1.10,2013-01-11 14:39:00,
2013-01-11 09:54:00,30.3,25.0,30.42,SE,145,3.0,8.0,82,0.00,,,0.00,weatherlink.com 1.10,2013-01-11 14:54:00,
2013-01-11 10:09:00,30.9,26.0,30.41,ESE,104,3.0,7.0,81,0.00,,,0.00,weatherlink.com 1.10,2013-01-11 15:09:00,
2013-01-11 10:24:00,32.2,26.0,30.41,East,96,4.0,7.0,78,0.00,,,0.00,weatherlink.com 1.10,2013-01-11 15:24:00,
2013-01-11 10:39:00,34.0,26.0,30.41,ESE,122,4.0,14.0,73,0.00,,,0.00,weatherlink.com 1.10,2013-01-11 15:39:00,
2013-01-11 10:55:00,34.1,26.0,30.40,SSE,160,5.0,9.0,73,0.00,,,0.00,weatherlink.com 1.10,2013-01-11 15:55:00,
2013-01-11 11:10:00,34.3,26.0,30.39,East,90,6.0,12.0,73,0.00,,,0.00,weatherlink.com 1.10,2013-01-11 16:10:00,
2013-01-11 11:25:00,34.5,27.0,30.37,ESE,111,1.0,5.0,73,0.00,,,0.00,weatherlink.com 1.10,2013-01-11 16:25:00,
2013-01-11 11:40:00,35.2,27.0,30.35,NW,316,3.0,10.0,71,0.00,,,0.00,weatherlink.com 1.10,2013-01-11 16:40:00,
2013-01-11 11:55:00,35.2,26.0,30.33,SE,127,11.0,12.0,70,0.00,,,0.00,weatherlink.com 1.10,2013-01-11 16:55:00,
2013-01-11 12:10:00,35.3,26.0,30.33,SSE,149,6.0,12.0,70,0.00,,,0.00,weatherlink.com 1.10,2013-01-11 17:10:00,
2013-01-11 12:25:00,35.5,27.0,30.32,East,89,13.0,15.0,70,0.00,,,0.00,weatherlink.com 1.10,2013-01-11 17:25:00,
2013-01-11 12:40:00,35.3,27.0,30.32,SSE,162,3.0,13.0,71,0.00,,,0.00,weatherlink.com 1.10,2013-01-11 17:40:00,
2013-01-11 12:55:00,35.6,27.0,30.30,SSE,150,9.0,16.0,70,0.00,,,0.00,weatherlink.com 1.10,2013-01-11 17:55:00,
2013-01-11 13:10:00,35.9,27.0,30.30,SE,132,5.0,13.0,69,0.00,,,0.00,weatherlink.com 1.10,2013-01-11 18:10:00,
2013-01-11 13:25:00,36.0,27.0,30.29,SSE,156,10.0,15.0,69,0.00,,,0.00,weatherlink.com 1.10,2013-01-11 18:25:00,
2013-01-11 13:40:00,36.1,26.0,30.28,ESE,115,4.0,16.0,68,0.00,,,0.00,weatherlink.com 1.10,2013-01-11 18:40:00,
2013-01-11 13:55:00,36.4,27.0,30.28,ESE,115,5.0,17.0,68,0.00,,,0.00,weatherlink.com 1.10,2013-01-11 18:55:00,
2013-01-11 14:10:00,36.4,27.0,30.27,SSE,163,10.0,18.0,68,0.00,,,0.00,weatherlink.com 1.10,2013-01-11 19:10:00,
2013-01-11 14:25:00,36.4,27.0,30.26,SE,136,11.0,18.0,68,0.00,,,0.00,weatherlink.com 1.10,2013-01-11 19:25:00,
2013-01-11 14:40:00,36.4,27.0,30.25,ESE,120,10.0,12.0,69,0.00,,,0.00,weatherlink.com 1.10,2013-01-11 19:40:00,
2013-01-11 14:55:00,35.8,29.0,30.25,South,183,6.0,17.0,76,0.01,,,0.01,weatherlink.com 1.10,2013-01-11 19:55:00,
2013-01-11 15:10:00,34.7,29.0,30.26,SE,131,2.0,16.0,81,0.01,,,0.01,weatherlink.com 1.10,2013-01-11 20:10:00,
2013-01-11 15:25:00,34.4,30.0,30.25,SE,136,3.0,10.0,84,0.01,,,0.01,weatherlink.com 1.10,2013-01-11 20:25:00,
2013-01-11 15:40:00,34.5,30.0,30.25,SE,134,6.0,16.0,84,0.01,,,0.01,weatherlink.com 1.10,2013-01-11 20:40:00,
2013-01-11 15:55:00,34.5,31.0,30.24,SE,124,10.0,15.0,85,0.00,,,0.01,weatherlink.com 1.10,2013-01-11 20:55:00,
2013-01-11 16:10:00,34.7,31.0,30.23,East,99,10.0,13.0,85,0.00,,,0.01,weatherlink.com 1.10,2013-01-11 21:10:00,
2013-01-11 16:40:00,35.2,31.0,30.21,SE,143,5.0,19.0,85,0.00,,,0.01,weatherlink.com 1.10,2013-01-11 21:40:00,
2013-01-11 16:55:00,35.4,31.0,30.20,SE,140,7.0,14.0,85,0.00,,,0.01,weatherlink.com 1.10,2013-01-11 21:55:00,
2013-01-11 17:10:00,35.8,32.0,30.20,SSE,160,7.0,17.0,86,0.00,,,0.01,weatherlink.com 1.10,2013-01-11 22:10:00,
2013-01-11 17:25:00,36.0,32.0,30.20,SE,143,7.0,19.0,86,0.00,,,0.01,weatherlink.com 1.10,2013-01-11 22:25:00,
2013-01-11 17:40:00,36.4,33.0,30.20,SE,127,8.0,14.0,86,0.00,,,0.01,weatherlink.com 1.10,2013-01-11 22:40:00,
2013-01-11 17:55:00,36.0,33.0,30.19,South,170,6.0,14.0,89,0.01,,,0.02,weatherlink.com 1.10,2013-01-11 22:55:00,
2013-01-11 18:10:00,35.8,34.0,30.18,ESE,117,12.0,13.0,91,0.02,,,0.03,weatherlink.com 1.10,2013-01-11 23:10:00,
2013-01-11 18:25:00,35.5,33.0,30.18,East,100,6.0,13.0,92,0.03,,,0.04,weatherlink.com 1.10,2013-01-11 23:25:00,
2013-01-11 18:40:00,35.6,34.0,30.18,SSE,148,6.0,13.0,93,0.04,,,0.05,weatherlink.com 1.10,2013-01-11 23:40:00,
2013-01-11 18:56:00,35.9,34.0,30.17,SE,135,6.0,13.0,94,0.04,,,0.06,weatherlink.com 1.10,2013-01-11 23:56:00,
2013-01-11 19:11:00,36.0,35.0,30.18,SE,127,11.0,11.0,94,0.03,,,0.06,weatherlink.com 1.10,2013-01-12 00:11:00,
2013-01-11 19:26:00,36.4,35.0,30.18,South,179,4.0,14.0,94,0.02,,,0.06,weatherlink.com 1.10,2013-01-12 00:26:00,
2013-01-11 19:41:00,36.6,35.0,30.16,ESE,110,5.0,16.0,94,0.01,,,0.06,weatherlink.com 1.10,2013-01-12 00:41:00,
2013-01-11 19:56:00,36.5,35.0,30.14,ESE,115,6.0,9.0,94,0.00,,,0.06,weatherlink.com 1.10,2013-01-12 00:56:00,
2013-01-11 20:11:00,36.6,35.0,30.12,East,88,2.0,18.0,95,0.00,,,0.06,weatherlink.com 1.10,2013-01-12 01:11:00,
2013-01-11 20:26:00,36.5,35.0,30.12,SSE,156,5.0,14.0,95,0.00,,,0.06,weatherlink.com 1.10,2013-01-12 01:26:00,
2013-01-11 20:41:00,36.9,36.0,30.15,ESE,106,4.0,15.0,96,0.00,,,0.06,weatherlink.com 1.10,2013-01-12 01:41:00,
2013-01-11 20:56:00,37.2,36.0,30.16,SE,133,3.0,10.0,95,0.00,,,0.06,weatherlink.com 1.10,2013-01-12 01:56:00,
2013-01-11 21:11:00,37.2,36.0,30.16,East,82,2.0,5.0,95,0.00,,,0.06,weatherlink.com 1.10,2013-01-12 02:11:00,
2013-01-11 21:26:00,37.0,36.0,30.16,ESE,120,2.0,5.0,95,0.00,,,0.06,weatherlink.com 1.10,2013-01-12 02:26:00,
2013-01-11 21:41:00,36.9,36.0,30.16,SSW,208,0.0,3.0,95,0.00,,,0.06,weatherlink.com 1.10,2013-01-12 02:41:00,
2013-01-11 21:56:00,36.8,36.0,30.17,NNE,23,0.0,2.0,95,0.00,,,0.06,weatherlink.com 1.10,2013-01-12 02:56:00,
2013-01-11 22:11:00,36.7,36.0,30.17,ESE,122,0.0,2.0,96,0.00,,,0.06,weatherlink.com 1.10,2013-01-12 03:11:00,
2013-01-11 22:26:00,36.8,36.0,30.16,SE,127,1.0,2.0,96,0.00,,,0.06,weatherlink.com 1.10,2013-01-12 03:26:00,
2013-01-11 22:41:00,37.4,36.0,30.15,SE,124,1.0,6.0,96,0.00,,,0.06,weatherlink.com 1.10,2013-01-12 03:41:00,
2013-01-11 22:56:00,37.5,37.0,30.15,SE,134,3.0,7.0,96,0.00,,,0.06,weatherlink.com 1.10,2013-01-12 03:56:00,
2013-01-11 23:11:00,37.7,37.0,30.15,SSE,159,3.0,8.0,96,0.00,,,0.06,weatherlink.com 1.10,2013-01-12 04:11:00,
2013-01-11 23:26:00,37.9,37.0,30.15,SSE,165,2.0,7.0,96,0.00,,,0.06,weatherlink.com 1.10,2013-01-12 04:26:00,
2013-01-11 23:41:00,37.9,37.0,30.14,ESE,103,3.0,5.0,96,0.00,,,0.06,weatherlink.com 1.10,2013-01-12 04:41:00,
2013-01-11 23:57:00,38.0,37.0,30.14,SSE,166,2.0,7.0,97,0.00,,,0.06,weatherlink.com 1.10,2013-01-12 04:57:00,